This demonstration page uses our WeatherBlox Daily Observations layout. Learn more.

Left ArrowRight Arrow

Hourly Observations for October 17, 2020

Temp ( °F °C ) Dew Point ( °F °C ) Humidity (%) Winds ( mph kmh ) Pressure ( in mb ) Visibility ( mi km ) Precip ( " mm )
12:15 am 00:15 Clear 53 11.8 28 -2.4 37 37 S 16 26 29.77 1008 10 16 N/A
12:35 am 00:35 Clear 53 11.5 28 -2.5 38 38 S 14 22 29.76 1008 10 16 N/A
12:55 am 00:55 Clear 52 11.2 27 -2.6 38 38 S 14 22 29.76 1008 10 16 N/A
1:15 am 01:15 Clear 52 11 27 -3 38 38 S 16 26 29.75 1008 10 16 N/A
1:35 am 01:35 Clear 52 11 27 -3 38 38 S 16 26 29.74 1007 10 16 N/A
1:55 am 01:55 Clear 51 10.7 27 -3 38 38 S 15 24 29.75 1007 10 16 N/A
2:15 am 02:15 Clear 52 11.1 27 -3 37 37 SSW 16 26 29.74 1007 10 16 N/A
2:35 am 02:35 Clear 52 11 26 -3.1 37 37 SSW 16 26 29.73 1007 10 16 N/A
2:55 am 02:55 Clear 51 10.7 26 -3.1 38 38 SSW 17 28 29.73 1007 10 16 N/A
3:15 am 03:15 Clear 51 10.7 26 -3.1 38 38 SSW 16 26 29.73 1007 10 16 N/A
3:35 am 03:35 Clear 51 10.7 27 -3 38 38 SSW 14 22 29.73 1007 10 16 N/A
3:55 am 03:55 Clear 51 10.5 27 -3 39 39 S 12 19 29.72 1006 10 16 N/A
4:15 am 04:15 Clear 51 10.3 27 -2.8 40 40 S 12 19 29.72 1006 10 16 N/A
4:35 am 04:35 Clear 50 10.1 27 -2.8 41 41 S 13 20 29.72 1006 10 16 N/A
4:55 am 04:55 Clear 49 9.7 27 -2.8 42 42 S 12 19 29.72 1006 10 16 N/A
5:15 am 05:15 Clear 49 9.6 27 -2.7 42 42 S 8 13 29.73 1007 10 16 N/A
5:35 am 05:35 Clear 48 9 27 -2.6 44 44 SSW 9 15 29.75 1008 10 16 N/A
5:55 am 05:55 Clear 49 9.2 28 -2.5 44 44 SW 6 9 29.74 1007 10 16 N/A
6:15 am 06:15 Clear 48 9.1 28 -2.3 45 45 SSW 9 15 29.75 1007 10 16 N/A
6:35 am 06:35 Clear 46 8 28 -2.5 48 48 SW 5 7 29.76 1008 10 16 N/A
6:55 am 06:55 Clear 45 7.1 28 -2.4 51 51 N N/A 29.77 1008 10 16 N/A
7:15 am 07:15 Clear 44 6.9 28 -2.1 53 53 N N/A 29.78 1008 10 16 N/A
7:35 am 07:35 Clear 41 4.9 28 -2.5 59 59 WNW 3 6 29.80 1009 10 16 N/A
7:55 am 07:55 Sunny 41 4.8 28 -2.5 60 60 N N/A 29.80 1009 10 16 N/A
8:15 am 08:15 Sunny 39 3.7 28 -2.5 64 64 WNW 3 6 29.83 1010 10 16 N/A
8:35 am 08:35 Sunny 41 5.1 29 -1.6 62 62 WNW 6 9 29.82 1010 10 16 N/A
8:55 am 08:55 Sunny 41 5.2 29 -1.5 62 62 NW 6 9 29.84 1010 10 16 N/A
9:15 am 09:15 Sunny 45 7.2 31 -0.8 57 57 NNW 8 13 29.82 1010 10 16 N/A
9:35 am 09:35 Sunny 48 8.9 31 -0.6 52 52 NW 8 13 29.81 1010 7 11 N/A
9:55 am 09:55 Sunny 50 10.1 30 -0.9 47 47 NNW 7 11 29.80 1009 10 16 N/A
10:15 am 10:15 Sunny 51 10.8 31 -0.7 45 45 NNW 5 7 29.80 1009 10 16 N/A
10:35 am 10:35 Sunny 52 11.2 31 -0.6 44 44 NNW 8 13 29.81 1010 10 16 N/A
10:55 am 10:55 Sunny 54 12.1 32 -0.2 43 43 NNW 7 11 29.81 1010 10 16 N/A
11:15 am 11:15 Sunny 58 14.3 34 0.9 40 40 NNE 6 9 29.79 1009 10 16 N/A
11:35 am 11:35 Sunny 61 16.2 37 2.5 40 40 NNE 9 15 29.78 1008 10 16 N/A
11:55 am 11:55 Sunny 63 17.3 37 2.7 38 38 NNE 9 15 29.77 1008 10 16 N/A
12:15 pm 12:15 Sunny 65 18.4 37 2.9 36 36 NNE 8 13 29.77 1008 10 16 N/A
12:35 pm 12:35 Sunny 67 19.6 38 3.2 34 34 N 3 6 29.76 1008 10 16 N/A
12:55 pm 12:55 Sunny 69 20.6 38 3.5 33 33 N 9 15 29.74 1007 10 16 N/A
1:15 pm 13:15 Sunny 68 20 38 3.2 33 33 NNW 9 15 29.75 1007 10 16 N/A
1:35 pm 13:35 Sunny 69 20.6 38 3.5 33 33 N 12 19 29.72 1007 10 16 N/A
1:55 pm 13:55 Sunny 71 21.5 38 3.5 31 31 N 16 26 29.72 1006 10 16 N/A
2:15 pm 14:15 Sunny 70 21.2 38 3.5 31 31 N 7 11 29.73 1007 10 16 N/A
2:35 pm 14:35 Sunny 69 20.5 38 3.1 32 32 N 6 9 29.73 1007 10 16 N/A
2:55 pm 14:55 Partly Cloudy 69 20.8 38 3.1 31 31 N 5 7 29.72 1006 10 16 N/A
3:15 pm 15:15 Partly Cloudy 72 22.2 38 3.3 29 29 NNE 7 11 29.70 1006 10 16 N/A
3:35 pm 15:35 Partly Cloudy 71 21.7 39 3.7 31 31 N 8 13 29.72 1007 10 16 N/A
3:55 pm 15:55 Partly Cloudy 70 21.3 38 3.4 31 31 N 8 13 29.73 1007 10 16 N/A
4:15 pm 16:15 Partly Cloudy 70 21 38 3.4 32 32 N 9 15 29.73 1007 10 16 N/A
4:35 pm 16:35 Sunny 68 20 38 3.3 33 33 N 10 17 29.75 1007 10 16 N/A
4:55 pm 16:55 Sunny 67 19.6 38 3.5 35 35 N 12 19 29.75 1007 10 16 N/A
5:15 pm 17:15 Sunny 67 19.3 39 3.7 36 36 NNE 13 20 29.75 1008 10 16 N/A
5:35 pm 17:35 Sunny 65 18.6 39 4.1 38 38 NNE 15 24 29.77 1008 10 16 N/A
5:55 pm 17:55 Partly Cloudy 64 17.8 40 4.7 42 42 NNE 21 33 29.79 1009 10 16 N/A
6:15 pm 18:15 Mostly Cloudy 61 16.1 40 4.4 46 46 NNE 23 37 29.82 1010 10 16 N/A
6:35 pm 18:35 Mostly Cloudy 57 13.7 37 3 49 49 NNE 23 37 29.85 1011 10 16 N/A
6:55 pm 18:55 Partly Cloudy 55 13 37 2.6 50 50 NNE 23 37 29.88 1012 10 16 N/A
7:15 pm 19:15 Mostly Cloudy 54 12.3 36 2.3 51 51 NNE 14 22 29.90 1013 10 16 N/A
7:35 pm 19:35 Mostly Cloudy 54 12 36 2 51 51 NNE 21 33 29.93 1013 10 16 N/A
7:55 pm 19:55 Mostly Cloudy 52 11.2 35 1.9 53 53 NNE 17 28 29.94 1014 10 16 N/A
8:15 pm 20:15 Mostly Cloudy 51 10.3 34 1.3 54 54 NNE 17 28 29.96 1015 10 16 N/A
8:35 pm 20:35 Clear 49 9.3 34 0.9 56 56 NNE 16 26 29.97 1015 10 16 N/A
8:55 pm 20:55 Partly Cloudy 48 8.7 33 0.8 58 58 NNE 17 28 29.98 1015 10 16 N/A
9:15 pm 21:15 Clear 47 8.2 33 0.5 59 59 NNE 14 22 30.00 1016 10 16 N/A
9:35 pm 21:35 Clear 46 7.6 33 0.5 61 61 NNE 16 26 29.99 1016 10 16 N/A
9:55 pm 21:55 Clear 45 7.1 33 0.5 63 63 NNE 16 26 30.04 1017 10 16 N/A
10:15 pm 22:15 Partly Cloudy 45 7 34 1.1 66 66 NNE 18 30 30.03 1017 10 16 N/A
10:35 pm 22:35 Partly Cloudy 43 6.2 34 1.3 71 71 NNE 16 26 30.06 1018 10 16 N/A
10:55 pm 22:55 Mostly Cloudy 44 6.4 35 1.7 72 72 NNE 18 30 30.08 1018 10 16 N/A
11:15 pm 23:15 Mostly Cloudy 42 5.7 35 1.5 75 75 NNE 17 28 30.09 1019 10 16 N/A
11:35 pm 23:35 Cloudy with Light Rain 41 5.1 35 1.5 78 78 N 15 24 30.11 1020 10 16 N/A
11:55 pm 23:55 Mostly Cloudy 40 4.5 35 1.6 82 82 N 16 26 30.14 1021 10 16 N/A

Powered by AerisWeather